Time,TemperatureF,DewpointF,PressureIn,WindDirection,WindDirectionDegrees,WindSpeedMPH,WindSpeedGustMPH,Humidity,HourlyPrecipIn,Conditions,Clouds,dailyrainin,SoftwareType,DateUTC
2013-05-05 00:23:00,47.0,-99.9,30.23,SE,139,12.0,16.0,-999,-99.99,,,-99.99,,2013-05-05 04:23:00,
2013-05-05 00:33:00,47.0,-99.9,30.23,SE,139,12.0,16.0,-999,-99.99,,,-99.99,,2013-05-05 04:33:00,
2013-05-05 00:43:00,47.0,-99.9,30.23,SE,139,12.0,16.0,-999,-99.99,,,-99.99,,2013-05-05 04:43:00,
2013-05-05 01:52:00,47.0,-99.9,30.21,SSE,159,7.0,16.0,-999,-99.99,,,-99.99,,2013-05-05 05:52:00,
2013-05-05 02:22:00,47.0,-99.9,30.21,SSE,159,7.0,16.0,-999,-99.99,,,-99.99,,2013-05-05 06:22:00,
2013-05-05 02:32:00,47.0,-99.9,30.21,SSE,159,7.0,16.0,-999,-99.99,,,-99.99,,2013-05-05 06:32:00,
2013-05-05 02:42:00,47.0,-99.9,30.21,SSE,159,7.0,16.0,-999,-99.99,,,-99.99,,2013-05-05 06:42:00,
2013-05-05 02:52:00,47.0,-99.9,30.20,ESE,103,10.0,14.0,-999,-99.99,,,-99.99,,2013-05-05 06:52:00,
2013-05-05 03:22:00,47.0,-99.9,30.20,ESE,103,10.0,14.0,-999,-99.99,,,-99.99,,2013-05-05 07:22:00,
2013-05-05 03:32:00,47.0,-99.9,30.20,ESE,103,10.0,14.0,-999,-99.99,,,-99.99,,2013-05-05 07:32:00,
2013-05-05 03:42:00,47.0,-99.9,30.20,ESE,103,10.0,14.0,-999,-99.99,,,-99.99,,2013-05-05 07:42:00,
2013-05-05 03:52:00,47.0,-99.9,30.19,East,86,16.0,16.0,-999,-99.99,,,-99.99,,2013-05-05 07:52:00,
2013-05-05 04:22:00,47.0,-99.9,30.19,East,86,16.0,16.0,-999,-99.99,,,-99.99,,2013-05-05 08:22:00,
2013-05-05 04:32:00,47.0,-99.9,30.19,East,86,16.0,16.0,-999,-99.99,,,-99.99,,2013-05-05 08:32:00,
2013-05-05 04:42:00,47.0,-99.9,30.19,East,86,16.0,16.0,-999,-99.99,,,-99.99,,2013-05-05 08:42:00,
2013-05-05 04:52:00,47.0,-99.9,30.20,ESE,106,12.0,19.0,-999,-99.99,,,-99.99,,2013-05-05 08:52:00,
2013-05-05 05:22:00,47.0,-99.9,30.20,ESE,106,12.0,19.0,-999,-99.99,,,-99.99,,2013-05-05 09:22:00,
2013-05-05 05:33:00,47.0,-99.9,30.20,ESE,106,12.0,19.0,-999,-99.99,,,-99.99,,2013-05-05 09:33:00,
2013-05-05 05:42:00,47.0,-99.9,30.20,ESE,106,12.0,19.0,-999,-99.99,,,-99.99,,2013-05-05 09:42:00,
2013-05-05 05:52:00,47.0,-99.9,30.21,East,94,16.0,18.0,-999,-99.99,,,-99.99,,2013-05-05 09:52:00,
2013-05-05 06:32:00,47.0,-99.9,30.21,East,94,16.0,18.0,-999,-99.99,,,-99.99,,2013-05-05 10:32:00,
2013-05-05 06:42:00,47.0,-99.9,30.21,East,94,16.0,18.0,-999,-99.99,,,-99.99,,2013-05-05 10:42:00,
2013-05-05 06:52:00,46.0,-99.9,30.21,East,86,12.0,19.0,-999,-99.99,,,-99.99,,2013-05-05 10:52:00,
2013-05-05 07:22:00,46.0,-99.9,30.21,East,86,12.0,19.0,-999,-99.99,,,-99.99,,2013-05-05 11:22:00,
2013-05-05 07:32:00,46.0,-99.9,30.21,East,86,12.0,19.0,-999,-99.99,,,-99.99,,2013-05-05 11:32:00,
2013-05-05 07:42:00,46.0,-99.9,30.21,East,86,12.0,19.0,-999,-99.99,,,-99.99,,2013-05-05 11:42:00,
2013-05-05 07:52:00,47.0,-99.9,30.22,ESE,102,13.0,19.0,-999,-99.99,,,-99.99,,2013-05-05 11:52:00,
2013-05-05 08:22:00,47.0,-99.9,30.22,ESE,102,13.0,19.0,-999,-99.99,,,-99.99,,2013-05-05 12:22:00,
2013-05-05 08:32:00,47.0,-99.9,30.22,ESE,102,13.0,19.0,-999,-99.99,,,-99.99,,2013-05-05 12:32:00,
2013-05-05 08:42:00,47.0,-99.9,30.22,ESE,102,13.0,19.0,-999,-99.99,,,-99.99,,2013-05-05 12:42:00,
2013-05-05 08:52:00,47.0,-99.9,30.24,East,94,15.0,22.0,-999,-99.99,,,-99.99,,2013-05-05 12:52:00,
2013-05-05 09:21:00,47.0,-99.9,30.24,East,94,15.0,22.0,-999,-99.99,,,-99.99,,2013-05-05 13:21:00,
2013-05-05 09:32:00,47.0,-99.9,30.24,East,94,15.0,22.0,-999,-99.99,,,-99.99,,2013-05-05 13:32:00,
2013-05-05 09:42:00,47.0,-99.9,30.24,East,94,15.0,22.0,-999,-99.99,,,-99.99,,2013-05-05 13:42:00,
2013-05-05 09:52:00,47.0,-99.9,30.23,ESE,116,11.0,17.0,-999,-99.99,,,-99.99,,2013-05-05 13:52:00,
2013-05-05 10:32:00,47.0,-99.9,30.23,ESE,116,11.0,17.0,-999,-99.99,,,-99.99,,2013-05-05 14:32:00,
2013-05-05 10:42:00,47.0,-99.9,30.23,ESE,116,11.0,17.0,-999,-99.99,,,-99.99,,2013-05-05 14:42:00,
2013-05-05 10:52:00,48.0,-99.9,30.24,NE,42,11.0,18.0,-999,-99.99,,,-99.99,,2013-05-05 14:52:00,
2013-05-05 11:33:00,48.0,-99.9,30.24,NE,42,11.0,18.0,-999,-99.99,,,-99.99,,2013-05-05 15:33:00,
2013-05-05 11:43:00,48.0,-99.9,30.24,NE,42,11.0,18.0,-999,-99.99,,,-99.99,,2013-05-05 15:43:00,
2013-05-05 11:52:00,49.0,-99.9,30.23,ESE,102,14.0,16.0,-999,-99.99,,,-99.99,,2013-05-05 15:52:00,
2013-05-05 12:32:00,49.0,-99.9,30.23,ESE,102,14.0,16.0,-999,-99.99,,,-99.99,,2013-05-05 16:32:00,
2013-05-05 12:42:00,49.0,-99.9,30.23,ESE,102,14.0,16.0,-999,-99.99,,,-99.99,,2013-05-05 16:42:00,
2013-05-05 12:52:00,49.0,-99.9,30.22,ENE,62,8.0,16.0,-999,-99.99,,,-99.99,,2013-05-05 16:52:00,
2013-05-05 13:24:00,49.0,-99.9,30.22,ENE,62,8.0,16.0,-999,-99.99,,,-99.99,,2013-05-05 17:24:00,
2013-05-05 13:32:00,49.0,-99.9,30.22,ENE,62,8.0,16.0,-999,-99.99,,,-99.99,,2013-05-05 17:32:00,
2013-05-05 13:42:00,49.0,-99.9,30.22,ENE,62,8.0,16.0,-999,-99.99,,,-99.99,,2013-05-05 17:42:00,
2013-05-05 13:52:00,51.0,-99.9,30.21,East,94,12.0,15.0,-999,-99.99,,,-99.99,,2013-05-05 17:52:00,
2013-05-05 14:22:00,51.0,-99.9,30.21,East,94,12.0,15.0,-999,-99.99,,,-99.99,,2013-05-05 18:22:00,
2013-05-05 14:32:00,51.0,-99.9,30.21,East,94,12.0,15.0,-999,-99.99,,,-99.99,,2013-05-05 18:32:00,
2013-05-05 14:42:00,51.0,-99.9,30.21,East,94,12.0,15.0,-999,-99.99,,,-99.99,,2013-05-05 18:42:00,
2013-05-05 14:52:00,51.0,-99.9,30.21,ESE,107,15.0,18.0,-999,-99.99,,,-99.99,,2013-05-05 18:52:00,
2013-05-05 15:22:00,51.0,-99.9,30.21,ESE,107,15.0,18.0,-999,-99.99,,,-99.99,,2013-05-05 19:22:00,
2013-05-05 15:32:00,51.0,-99.9,30.21,ESE,107,15.0,18.0,-999,-99.99,,,-99.99,,2013-05-05 19:32:00,
2013-05-05 15:42:00,51.0,-99.9,30.21,ESE,107,15.0,18.0,-999,-99.99,,,-99.99,,2013-05-05 19:42:00,
2013-05-05 15:52:00,49.0,-99.9,30.20,ESE,119,12.0,19.0,-999,-99.99,,,-99.99,,2013-05-05 19:52:00,
2013-05-05 16:21:00,49.0,-99.9,30.20,ESE,119,12.0,19.0,-999,-99.99,,,-99.99,,2013-05-05 20:21:00,
2013-05-05 16:32:00,49.0,-99.9,30.20,ESE,119,12.0,19.0,-999,-99.99,,,-99.99,,2013-05-05 20:32:00,
2013-05-05 16:42:00,49.0,-99.9,30.20,ESE,119,12.0,19.0,-999,-99.99,,,-99.99,,2013-05-05 20:42:00,
2013-05-05 16:52:00,49.0,-99.9,30.18,SE,133,8.0,14.0,-999,-99.99,,,-99.99,,2013-05-05 20:52:00,
2013-05-05 17:33:00,49.0,-99.9,30.18,SE,133,8.0,14.0,-999,-99.99,,,-99.99,,2013-05-05 21:33:00,
2013-05-05 17:42:00,49.0,-99.9,30.18,SE,133,8.0,14.0,-999,-99.99,,,-99.99,,2013-05-05 21:42:00,
2013-05-05 17:52:00,49.0,-99.9,30.17,SSE,157,8.0,14.0,-999,-99.99,,,-99.99,,2013-05-05 21:52:00,
2013-05-05 18:23:00,49.0,-99.9,30.17,SSE,157,8.0,14.0,-999,-99.99,,,-99.99,,2013-05-05 22:23:00,
2013-05-05 18:34:00,49.0,-99.9,30.17,SSE,157,8.0,14.0,-999,-99.99,,,-99.99,,2013-05-05 22:34:00,
2013-05-05 18:42:00,49.0,-99.9,30.17,SSE,157,8.0,14.0,-999,-99.99,,,-99.99,,2013-05-05 22:42:00,
2013-05-05 18:52:00,49.0,-99.9,30.17,SE,126,5.0,11.0,-999,-99.99,,,-99.99,,2013-05-05 22:52:00,
2013-05-05 19:22:00,49.0,-99.9,30.17,SE,126,5.0,11.0,-999,-99.99,,,-99.99,,2013-05-05 23:22:00,
2013-05-05 19:32:00,49.0,-99.9,30.17,SE,126,5.0,11.0,-999,-99.99,,,-99.99,,2013-05-05 23:32:00,
2013-05-05 19:42:00,49.0,-99.9,30.17,SE,126,5.0,11.0,-999,-99.99,,,-99.99,,2013-05-05 23:42:00,
2013-05-05 19:52:00,47.0,-99.9,30.18,SE,133,7.0,10.0,-999,-99.99,,,-99.99,,2013-05-05 23:52:00,
2013-05-05 20:22:00,47.0,-99.9,30.18,SE,133,7.0,10.0,-999,-99.99,,,-99.99,,2013-05-06 00:22:00,
2013-05-05 20:32:00,47.0,-99.9,30.18,SE,133,7.0,10.0,-999,-99.99,,,-99.99,,2013-05-06 00:32:00,
2013-05-05 20:42:00,47.0,-99.9,30.18,SE,133,7.0,10.0,-999,-99.99,,,-99.99,,2013-05-06 00:42:00,
2013-05-05 20:52:00,47.0,-99.9,30.18,SE,137,7.0,11.0,-999,-99.99,,,-99.99,,2013-05-06 00:52:00,
2013-05-05 21:21:00,47.0,-99.9,30.18,SE,137,7.0,11.0,-999,-99.99,,,-99.99,,2013-05-06 01:21:00,
2013-05-05 21:32:00,47.0,-99.9,30.18,SE,137,7.0,11.0,-999,-99.99,,,-99.99,,2013-05-06 01:32:00,
2013-05-05 21:42:00,47.0,-99.9,30.18,SE,137,7.0,11.0,-999,-99.99,,,-99.99,,2013-05-06 01:42:00,
2013-05-05 21:52:00,47.0,-99.9,30.19,SE,125,7.0,12.0,-999,-99.99,,,-99.99,,2013-05-06 01:52:00,
2013-05-05 22:32:00,47.0,-99.9,30.19,SE,125,7.0,12.0,-999,-99.99,,,-99.99,,2013-05-06 02:32:00,
2013-05-05 22:42:00,47.0,-99.9,30.19,SE,125,7.0,12.0,-999,-99.99,,,-99.99,,2013-05-06 02:42:00,
2013-05-05 22:52:00,47.0,-99.9,30.18,ESE,107,5.0,10.0,-999,-99.99,,,-99.99,,2013-05-06 02:52:00,
2013-05-05 23:22:00,47.0,-99.9,30.18,ESE,107,5.0,10.0,-999,-99.99,,,-99.99,,2013-05-06 03:22:00,
2013-05-05 23:33:00,47.0,-99.9,30.18,ESE,107,5.0,10.0,-999,-99.99,,,-99.99,,2013-05-06 03:33:00,
2013-05-05 23:43:00,47.0,-99.9,30.18,ESE,107,5.0,10.0,-999,-99.99,,,-99.99,,2013-05-06 03:43:00,
2013-05-05 23:52:00,48.0,-99.9,30.17,SE,125,7.0,12.0,-999,-99.99,,,-99.99,,2013-05-06 03:52:00,